Regional Weather Roundup
Issued by NWS

Home | Current Version | Previous Version | Graphics & Text | Print | Product List | Glossary On
Versions: 1 2 3 4 5 6 7 8 9 10 11 12 13 14 15 16 17 18 19 20 21 22 23 24 25 26 27 28 29 30 31 32 33 34 35 36 37 38 39 40 41 42 43 44 45 46 47 48 49 50
000
ASUS43 KLMK 222310
RWRKY
KENTUCKY REGIONAL WEATHER ROUNDUP
NATIONAL WEATHER SERVICE LOUISVILLE KY
700 PM EDT TUE MAY 22 2018

NOTE "FAIR" INDICATES FEW OR NO CLOUDS BELOW 12,000 FEET
WITH NO SIGNIFICANT WEATHER AND/OR OBSTRUCTIONS TO VISIBILITY.

KYZ001>023-026-027-061>063-070>075-230000-
WESTERN AND SOUTH CENTRAL KENTUCKY

CITY           SKY/WX    TMP DP  RH WIND       PRES   REMARKS
PADUCAH        FAIR      87  68  52 N5        29.97S HX  90
HENDERSON      NOT AVBL
OWENSBORO      FAIR      85  69  58 W9        29.97S
HOPKINSVILLE   FAIR      78  71  77 SE3       30.00S
BOWLING GREEN  FAIR      79  70  74 S3        30.01S
GLASGOW        FAIR      75  69  80 S3        30.03S
$$

KYZ024-025-028>034-038-045-046-053-230000-
NORTH CENTRAL KENTUCKY

CITY           SKY/WX    TMP DP  RH WIND       PRES   REMARKS
LOUISVILLE/SDF FAIR      84  69  60 SW12G18   29.97R
LOUISVILLE/LOU FAIR      83  71  67 S12       29.97S
FORT KNOX      FAIR      79  70  73 S5        30.00S
$$

KYZ035>037-039>044-047>052-055>060-089>105-230000-
NORTHEAST KENTUCKY

CITY           SKY/WX    TMP DP  RH WIND       PRES   REMARKS
LEXINGTON      FAIR      79  68  69 SW8       30.01F
COVINGTON      PTSUNNY   80  69  69 VRB6      29.95S THUNDER
FRANKFORT      FAIR      80  66  62 SW8       29.98F
$$

KYZ054-064>069-076>088-106>120-230000-
SOUTHEAST KENTUCKY

CITY           SKY/WX    TMP DP  RH WIND       PRES   REMARKS
JACKSON        FAIR      74  68  81 CALM      30.05R
LONDON         LGT RAIN  69  67  93 W5        30.05F
SOMERSET       FAIR      68  68 100 MISG      30.05F
MIDDLESBORO    FAIR      72  71  96 CALM      30.06F
MONTICELLO     FAIR      70  69  97 E7        30.06F
$$





USA.gov is the U.S. government's official web portal to all federal, state and local government web resources and services.